sat.trackr.live / text

‹ back to catalog

NAPA-1

NORAD 46320 · 2020-061BA

PAYLOAD ACTIVE UNKNOWN

§ Identity

Operator
Country
THAI
Launch date
2020-09-03
Launch site
FRGUI
Launch vehicle
Mass (kg)
RCS (m²)

External: N2YO · Heavens-Above · Gunter

§ Orbital elements

Epoch: 2026-05-25T05:29:52.283040Z

Period
92.02 min
Inclination
97.2479°
Eccentricity
0.0001786
Mean motion
15.64800975 rev/d
Perigee alt
372.6 km
Apogee alt
375.0 km
Semi-major
6,751.9 km
B*
6.0918e-4
RAAN
218.7070°
Arg perigee
140.3901°
Mean anomaly
219.7489°
Rev number
31,814

§ Raw data

NAPA-11 46320U 20061BA  26145.22907735  .00059468  00000+0  60918-3 0  99952 46320  97.2479 218.7070 0001786 140.3901 219.7489 15.64800975318142

JSON: /api/v1/satellites/46320 · /tle

For live sub-satellite position, see the globe view (requires WebGL).

§ Visibility from observer

Set your observer location to see the next 7 days of passes ≥ 10°. The values pass through the URL so the page stays shareable.

No JS? Fill the form by hand. The geolocation button needs JavaScript.

§ Radio — SatNOGS DB

ModeDescriptionDownlinkUplink
BPSK Downlink 401.125 MHz

1 transmitter · refreshed weekly from db.satnogs.org